This is the latest recevied weather packets stored in our database for station/object KA3WVU. If no packets are shown the sender has not sent any weather packets the latest 10 day(s).
| Time | Temp. | Humidity | Pressure | Rain* | Wind** | Luminosity | Snow |
|---|---|---|---|---|---|---|---|
| 1777730961 | 2.78° C | 80% | 1013.3 hPa | 0 mm | - | 137 W/m² | - |
| 1777730660 | 2.78° C | 79% | 1013.4 hPa | 0 mm | - | 372 W/m² | - |
| 1777730355 | 2.22° C | 83% | 1013.5 hPa | 0 mm | - | 230 W/m² | - |
| 1777730051 | 2.22° C | 82% | 1013.4 hPa | 0 mm | - | 310 W/m² | - |
| 1777729748 | 2.22° C | 85% | 1013.4 hPa | 0 mm | - | 207 W/m² | - |
| 1777729445 | 2.22° C | 83% | 1013.5 hPa | 0 mm | - | 282 W/m² | - |
| 1777729141 | 2.22° C | 82% | 1013.5 hPa | 0 mm | - | 170 W/m² | - |
| 1777728838 | 2.22° C | 79% | 1013.4 hPa | 0 mm | - | 217 W/m² | - |
| 1777728535 | 2.22° C | 76% | 1013.4 hPa | 0 mm | - | 205 W/m² | - |
| 1777728232 | 2.22° C | 80% | 1013.6 hPa | 0 mm | - | 149 W/m² | - |
| 1777727929 | 2.22° C | 75% | 1013.6 hPa | 0 mm | - | 173 W/m² | - |
| 1777727626 | 2.22° C | 83% | 1013.6 hPa | 0 mm | - | 179 W/m² | - |
| 1777727323 | 1.67° C | 85% | 1013.6 hPa | 0 mm | - | 113 W/m² | - |
| 1777727021 | 1.67° C | 85% | 1013.6 hPa | 0 mm | - | 143 W/m² | - |
| 1777726717 | 1.67° C | 87% | 1013.6 hPa | 0 mm | - | 195 W/m² | - |
| 1777726415 | 1.67° C | 89% | 1013.6 hPa | 0 mm | - | 219 W/m² | - |
| 1777726112 | 1.67° C | 95% | 1014 hPa | 0 mm | - | 101 W/m² | - |
| 1777725808 | 1.11° C | 94% | 1014.1 hPa | 0 mm | - | 152 W/m² | - |
| 1777725506 | 1.11° C | 97% | 1014 hPa | 0 mm | - | 58 W/m² | - |
| 1777725203 | 0.56° C | 99% | 1014 hPa | 0 mm | - | 158 W/m² | - |
| 1777724901 | 0.56° C | 99% | 1013.9 hPa | 0 mm | - | 118 W/m² | - |
| 1777724596 | 0.56° C | 99% | 1014.1 hPa | 0 mm | - | 91 W/m² | - |
| 1777724295 | 0.56° C | 99% | 1014.1 hPa | 0 mm | - | 136 W/m² | - |
| 1777723992 | 0.56° C | 99% | 1014 hPa | 0 mm | - | 110 W/m² | - |
| 1777723689 | 0.56° C | 99% | 1014.2 hPa | 0 mm | - | 71 W/m² | - |
* Rain latest hour (hover to see other rain measurements)
** Current wind speed in m/s (hover to see current wind gust speed)